Location: Newark
(34.0131°N, 4.3314°W)
Time: 07:17:12
(UTC+00:00)

A-11 Canister half - Pass Details

Date: 25 October 2019
Orbit: 1514 x 1686 km, 47.2° (Epoch: 13 November)

Event Time Altitude Azimuth Distance (km) Brightness Sun altitude
Rises 21:19:20 0° 175° (S) 4,923 - -47.2°
Reaches altitude 10° 21:24:26 10° 154° (SSE) 3,939 - -48.2°
Maximum altitude 21:29:32 15° 123° (ESE) 3,532 - -49.2°
Drops below altitude 10° 21:34:35 10° 92° (E) 3,920 - -50.2°
Sets 21:39:34 0° 71° (ENE) 4,887 - -51.1°
